Weather History for Stafford, VA

Change the Weather History Date:

Thursday, November 8, 2012

  Actual Average (KNYG) Record (KNYG)
Temperature  
Mean Temperature 48 °F -  
Max Temperature 57 °F 56 °F 69 °F (1996)
Min Temperature 40 °F 38 °F 30 °F (2007)
Degree Days  
Heating Degree Days 16    
Moisture  
Dew Point 19 °F    
Average Humidity 35    
Maximum Humidity 61    
Minimum Humidity 18    
Precipitation  
Precipitation 0.00 in - - ()
Sea Level Pressure  
Sea Level Pressure 30.01 in    
Wind  
Wind Speed 12 mph (NW)    
Max Wind Speed 24 mph    
Max Gust Speed 31 mph    
Visibility 10 miles    
Events      
Averages and records for this station are not official NWS values.
T = Trace of Precipitation, MM = Missing Value Source: NWS Daily Summary

Daily Weather History Graph

Daily Weather History Graph

Search for Another Location

Airport:

Trip Planner

Search our weather history database for the weather conditions in past years. The results will help you decide how hot, cold, wet, or windy it might be!

Date:

Astronomy

Nov. 08, 2012 Rise Set
Actual Time 6:44 AM EST 5:02 PM EST
Civil Twilight 6:16 AM EST 5:30 PM EST
Nautical Twilight 5:44 AM EST 6:01 PM EST
Astronomical Twilight 5:13 AM EST 6:33 PM EST
Moon 12:42 AM EST (11/8) 1:38 PM EST (11/8)
Length of Visible Light 11h 14m
Length of Day
10h 18m
Waning Crescent, 33% of the Moon is Illuminated
Nov 8
Waning Crescent
Nov 13
New
Nov 20
First Quarter
Nov 28
Full
Dec 6
Last Quarter

Hourly Weather History & Observations

Time (EST) Temp. Windchill Dew Point Humidity Pressure Visibility Wind Dir Wind Speed Gust Speed Precip Events Conditions
12:15 AM 42.8 °F 37.0 °F 24.1 °F 48% 29.95 in 10.0 mi NW 10.4 mph 17.3 mph N/A   Overcast
12:35 AM 42.8 °F 36.2 °F 23.2 °F 46% 29.95 in 10.0 mi NW 12.7 mph - N/A   Overcast
12:55 AM 43.0 °F 37.2 °F 22.1 °F 44% 29.95 in 10.0 mi NNW 10.4 mph - N/A   Overcast
1:15 AM 43.3 °F 37.7 °F 21.2 °F 41% 29.95 in 10.0 mi NNW 10.4 mph 16.1 mph N/A   Overcast
1:35 AM 43.2 °F 37.0 °F 20.5 °F 40% 29.95 in 10.0 mi NNW 11.5 mph 16.1 mph N/A   Overcast
2:15 AM 42.6 °F 37.2 °F 20.5 °F 41% 29.96 in 10.0 mi NNW 9.2 mph - N/A   Overcast
2:35 AM 42.6 °F 37.2 °F 19.9 °F 40% 29.95 in 10.0 mi NW 9.2 mph - N/A   Overcast
2:55 AM 42.4 °F 37.0 °F 19.9 °F 41% 29.95 in 10.0 mi NW 9.2 mph - N/A   Overcast
3:15 AM 42.8 °F 36.6 °F 19.6 °F 40% 29.94 in 10.0 mi NW 11.5 mph 18.4 mph N/A   Overcast
3:35 AM 42.6 °F 35.6 °F 19.2 °F 39% 29.94 in 10.0 mi NW 13.8 mph 19.6 mph N/A   Overcast
3:55 AM 42.8 °F 35.4 °F 20.1 °F 40% 29.94 in 10.0 mi NW 15.0 mph 20.7 mph N/A   Overcast
4:15 AM 42.6 °F 35.9 °F 20.1 °F 41% 29.95 in 10.0 mi NW 12.7 mph 17.3 mph N/A   Mostly Cloudy
4:35 AM 42.4 °F 35.7 °F 19.9 °F 41% 29.95 in 10.0 mi NW 12.7 mph - N/A   Scattered Clouds
4:55 AM 41.9 °F 35.4 °F 19.9 °F 42% 29.96 in 10.0 mi NNW 11.5 mph - N/A   Clear
5:15 AM 41.2 °F 34.5 °F 19.9 °F 43% 29.96 in 10.0 mi NW 11.5 mph - N/A   Clear
5:35 AM 41.4 °F 34.7 °F 19.9 °F 42% 29.96 in 10.0 mi NW 11.5 mph 18.4 mph N/A   Clear
5:55 AM 41.0 °F 35.2 °F 19.4 °F 42% 29.96 in 10.0 mi NW 9.2 mph - N/A   Clear
6:15 AM 41.0 °F 35.2 °F 19.0 °F 41% 29.97 in 10.0 mi WNW 9.2 mph - N/A   Clear
6:35 AM 41.0 °F 34.7 °F 18.3 °F 40% 29.97 in 10.0 mi WNW 10.4 mph - N/A   Clear
6:55 AM 40.3 °F 34.9 °F 18.3 °F 41% 29.98 in 10.0 mi WNW 8.1 mph - N/A   Clear
7:15 AM 40.1 °F 38.0 °F 18.9 °F 43% 29.99 in 10.0 mi WNW 3.5 mph - N/A   Clear
7:55 AM 42.8 °F 39.3 °F 19.8 °F 40% 30.00 in 10.0 mi NW 5.8 mph - N/A   Clear
8:15 AM 43.2 °F 39.0 °F 18.3 °F 37% 30.01 in 10.0 mi NW 6.9 mph - N/A   Clear
8:35 AM 43.7 °F 40.3 °F 19.6 °F 38% 30.02 in 10.0 mi NW 5.8 mph - N/A   Clear
8:55 AM 45.7 °F 41.5 °F 18.7 °F 34% 30.02 in 10.0 mi NW 8.1 mph - N/A   Clear
9:15 AM 47.3 °F - 16.9 °F 30% 30.02 in 10.0 mi NW 18.4 mph 27.6 mph N/A   Clear
9:35 AM 46.8 °F - 15.3 °F 28% 30.02 in 10.0 mi NW 15.0 mph 23.0 mph N/A   Clear
9:55 AM 47.3 °F - 15.3 °F 28% 30.03 in 10.0 mi NNW 12.7 mph 21.9 mph N/A   Clear
10:15 AM 48.2 °F - 15.1 °F 27% 30.02 in 10.0 mi NNW 16.1 mph 24.2 mph N/A   Clear
10:35 AM 50.5 °F - 14.4 °F 24% 30.02 in 10.0 mi NNW 16.1 mph 25.3 mph N/A   Clear
10:55 AM 52.3 °F - 14.2 °F 22% 30.02 in 10.0 mi NW 20.7 mph 31.1 mph N/A   Clear
11:15 AM 53.1 °F - 14.0 °F 21% 30.02 in 10.0 mi NW 20.7 mph 27.6 mph N/A   Clear
11:35 AM 54.0 °F - 13.6 °F 20% 30.01 in 10.0 mi NNW 19.6 mph 27.6 mph N/A   Clear
11:55 AM 54.7 °F - 13.6 °F 20% 30.01 in 10.0 mi NNW 18.4 mph 26.5 mph N/A   Clear
12:15 PM 54.9 °F - 12.6 °F 19% 30.00 in 10.0 mi NW 17.3 mph 28.8 mph N/A   Clear
12:35 PM 55.0 °F - 13.1 °F 19% 30.00 in 10.0 mi NW 19.6 mph 28.8 mph N/A   Clear
12:55 PM 55.2 °F - 13.3 °F 19% 29.99 in 10.0 mi WNW 17.3 mph 26.5 mph N/A   Clear
1:15 PM 55.4 °F - 13.3 °F 19% 29.99 in 10.0 mi NW 18.4 mph 27.6 mph N/A   Clear
1:35 PM 56.5 °F - 15.1 °F 20% 29.99 in 10.0 mi NW 18.4 mph 25.3 mph N/A   Clear
1:55 PM 57.6 °F - 15.3 °F 19% 29.98 in 10.0 mi NW 15.0 mph 25.3 mph N/A   Clear
2:15 PM 57.2 °F - 14.9 °F 19% 29.99 in 10.0 mi NW 23.0 mph 27.6 mph N/A   Clear
2:35 PM 56.3 °F - 13.8 °F 19% 29.98 in 10.0 mi NNW 24.2 mph 29.9 mph N/A   Clear
2:55 PM 56.3 °F - 13.3 °F 18% 29.98 in 10.0 mi NNW 18.4 mph 27.6 mph N/A   Clear
3:15 PM 55.9 °F - 13.3 °F 19% 29.98 in 10.0 mi NW 19.6 mph 28.8 mph N/A   Clear
3:35 PM 55.8 °F - 14.9 °F 20% 29.98 in 10.0 mi NW 15.0 mph 20.7 mph N/A   Clear
3:55 PM 54.9 °F - 13.3 °F 19% 29.99 in 10.0 mi NW 16.1 mph 27.6 mph N/A   Clear
4:15 PM 54.1 °F - 13.8 °F 20% 29.99 in 10.0 mi NW 18.4 mph 24.2 mph N/A   Clear
4:35 PM 52.3 °F - 15.1 °F 23% 30.00 in 10.0 mi NW 12.7 mph - N/A   Clear
4:55 PM 49.3 °F - 15.8 °F 26% 30.01 in 10.0 mi NW 8.1 mph - N/A   Clear
5:15 PM 49.8 °F - 15.8 °F 26% 30.01 in 10.0 mi NW 8.1 mph - N/A   Clear
5:35 PM 48.9 °F - 17.2 °F 28% 30.02 in 10.0 mi NW 12.7 mph 17.3 mph N/A   Clear
5:55 PM 49.6 °F - 17.8 °F 28% 30.03 in 10.0 mi NW 9.2 mph 16.1 mph N/A   Clear
6:15 PM 47.7 °F - 18.9 °F 32% 30.04 in 10.0 mi NW 9.2 mph - N/A   Clear
6:35 PM 47.5 °F - 19.9 °F 34% 30.05 in 10.0 mi NNW 9.2 mph - N/A   Clear
6:55 PM 46.4 °F 41.5 °F 21.2 °F 37% 30.05 in 10.0 mi NW 10.4 mph - N/A   Clear
7:15 PM 45.7 °F 41.5 °F 22.3 °F 40% 30.06 in 10.0 mi NW 8.1 mph - N/A   Clear
7:35 PM 46.0 °F 39.9 °F 23.2 °F 41% 30.07 in 10.0 mi NW 13.8 mph - N/A   Clear
7:55 PM 46.4 °F 41.9 °F 24.6 °F 42% 30.07 in 10.0 mi NW 9.2 mph 19.6 mph N/A   Clear
8:15 PM 46.0 °F 41.4 °F 24.8 °F 43% 30.08 in 10.0 mi NW 9.2 mph - N/A   Clear
8:35 PM 45.5 °F 39.9 °F 25.7 °F 46% 30.08 in 10.0 mi NW 11.5 mph 17.3 mph N/A   Clear
8:55 PM 45.7 °F 38.8 °F 26.6 °F 47% 30.09 in 10.0 mi NW 16.1 mph 20.7 mph N/A   Clear
9:15 PM 44.4 °F 39.5 °F 27.1 °F 51% 30.09 in 10.0 mi NW 9.2 mph 17.3 mph N/A   Clear
9:35 PM 44.4 °F 38.2 °F 27.3 °F 51% 30.10 in 10.0 mi NW 12.7 mph 17.3 mph N/A   Clear
9:55 PM 44.6 °F 38.8 °F 28.0 °F 52% 30.10 in 10.0 mi NW 11.5 mph 20.7 mph N/A   Clear
10:15 PM 44.8 °F 39.4 °F 28.4 °F 53% 30.10 in 10.0 mi NW 10.4 mph 21.9 mph N/A   Clear
10:35 PM 44.2 °F 39.2 °F 28.4 °F 54% 30.10 in 10.0 mi WNW 9.2 mph 16.1 mph N/A   Clear
10:55 PM 43.9 °F 38.8 °F 28.8 °F 55% 30.10 in 10.0 mi NW 9.2 mph 16.1 mph N/A   Clear
11:15 PM 43.7 °F 38.1 °F 29.3 °F 57% 30.10 in 10.0 mi NW 10.4 mph 17.3 mph N/A   Clear
11:35 PM 42.8 °F 36.6 °F 29.7 °F 60% 30.11 in 10.0 mi NW 11.5 mph 16.1 mph N/A   Clear
11:55 PM 42.3 °F 36.8 °F 29.7 °F 61% 30.12 in 10.0 mi NNW 9.2 mph - N/A   Clear